Weather History for KCSM - December, 2013

Change the Weather History Date:

Friday, December 6, 2013

  Actual Average Record
Temperature  
Mean Temperature 16 °F -  
Max Temperature 21 °F 51 °F 68 °F (2001)
Min Temperature 12 °F 31 °F 12 °F (2013)
Degree Days  
Heating Degree Days 48    
Moisture  
Dew Point 8 °F    
Average Humidity 68    
Maximum Humidity 84    
Minimum Humidity 48    
Precipitation  
Precipitation 0.00 in - - ()
Sea Level Pressure  
Sea Level Pressure 30.41 in    
Wind  
Wind Speed 17 mph (North)    
Max Wind Speed 21 mph    
Max Gust Speed 28 mph    
Visibility 8 miles    
Events Snow    
Averages and records for this station are not official NWS values.
T = Trace of Precipitation, MM = Missing Value Source: NWS Daily Summary

Daily Weather History Graph

Daily Weather History Graph

Search for Another Location

Airport or City:

Trip Planner

Search our weather history database for the weather conditions in past years. The results will help you decide how hot, cold, wet, or windy it might be!

Date:

Astronomy

Dec. 06, 2013 Rise Set
Actual Time 7:31 AM CST 5:24 PM CST
Civil Twilight 7:03 AM CST 5:52 PM CST
Nautical Twilight 6:32 AM CST 6:23 PM CST
Astronomical Twilight 6:01 AM CST 6:54 PM CST
Moon 10:43 AM CST (12/6) 9:51 PM CST (12/6)
Length of Visible Light 10h 48m
Length of Day
9h 52m
Waxing Crescent, 19% of the Moon is Illuminated
Dec 6
Waxing Crescent
Dec 9
First Quarter
Dec 17
Full
Dec 25
Last Quarter
Jan 1
New

Hourly Weather History & Observations

Time (CST) Temp. Windchill Dew Point Humidity Pressure Visibility Wind Dir Wind Speed Gust Speed Precip Events Conditions
12:17 AM 17.6 °F 3.2 °F 10.4 °F 73% 30.27 in 1.8 mi North 15.0 mph - 0.00 in Snow Light Snow
12:53 AM 16.0 °F -1.3 °F 12.0 °F 84% 30.32 in 2.0 mi North 20.7 mph - 0.00 in Snow Light Snow
1:06 AM 15.8 °F -0.2 °F 10.4 °F 79% 30.23 in 4.0 mi North 17.3 mph - 0.00 in Snow Light Snow
1:17 AM 15.8 °F -0.6 °F 10.4 °F 79% 30.24 in 7.0 mi North 18.4 mph 27.6 mph 0.00 in   Overcast
1:53 AM 17.1 °F 0.6 °F 7.0 °F 65% 30.32 in 10.0 mi North 19.6 mph - 0.00 in   Overcast
2:23 AM 15.8 °F -0.2 °F 8.6 °F 73% 30.25 in 2.5 mi North 17.3 mph - 0.00 in Snow Light Snow
2:53 AM 15.1 °F -1.1 °F 10.0 °F 80% 30.34 in 1.8 mi North 17.3 mph - 0.00 in Snow Light Snow
3:25 AM 15.8 °F -0.6 °F 10.4 °F 79% 30.27 in 2.0 mi North 18.4 mph - 0.00 in Snow Light Snow
3:46 AM 15.8 °F -1.1 °F 10.4 °F 79% 30.26 in 1.5 mi North 19.6 mph - 0.00 in Snow Light Snow
3:53 AM 15.1 °F -2.0 °F 10.9 °F 84% 30.34 in 1.5 mi North 19.6 mph - 0.00 in Snow Light Snow
4:18 AM 15.8 °F -1.1 °F 10.4 °F 79% 30.26 in 3.0 mi North 19.6 mph - 0.00 in Snow Light Snow
4:35 AM 15.8 °F -1.5 °F 10.4 °F 79% 30.26 in 7.0 mi North 20.7 mph - 0.00 in Snow Light Snow
4:53 AM 15.1 °F -2.0 °F 10.0 °F 80% 30.35 in 10.0 mi North 19.6 mph - 0.00 in   Overcast
5:53 AM 15.1 °F -1.1 °F 9.0 °F 77% 30.37 in 10.0 mi North 17.3 mph - 0.00 in   Scattered Clouds
6:53 AM 15.1 °F -1.1 °F 8.1 °F 74% 30.39 in 10.0 mi North 17.3 mph - N/A   Mostly Cloudy
7:53 AM 14.0 °F -2.0 °F 8.1 °F 77% 30.43 in 10.0 mi North 16.1 mph - N/A   Overcast
8:53 AM 15.1 °F -2.5 °F 8.1 °F 74% 30.43 in 10.0 mi North 20.7 mph - N/A   Overcast
9:53 AM 17.1 °F 2.0 °F 8.1 °F 68% 30.47 in 10.0 mi North 16.1 mph - N/A   Clear
10:53 AM 19.0 °F 3.6 °F 8.1 °F 62% 30.48 in 10.0 mi North 18.4 mph - N/A   Clear
11:53 AM 19.9 °F 5.2 °F 9.0 °F 62% 30.50 in 10.0 mi North 17.3 mph - N/A   Partly Cloudy
12:53 PM 21.0 °F 6.6 °F 10.0 °F 63% 30.48 in 10.0 mi North 17.3 mph 24.2 mph N/A   Clear
1:53 PM 21.9 °F 8.2 °F 9.0 °F 58% 30.47 in 10.0 mi NNE 16.1 mph - N/A   Clear
2:53 PM 21.9 °F 8.7 °F 7.0 °F 53% 30.47 in 10.0 mi North 15.0 mph - N/A   Mostly Cloudy
3:53 PM 21.0 °F 7.1 °F 5.0 °F 50% 30.48 in 10.0 mi NNE 16.1 mph - N/A   Overcast
4:53 PM 21.0 °F 7.6 °F 3.9 °F 48% 30.51 in 10.0 mi North 15.0 mph - N/A   Overcast
5:53 PM 19.0 °F 6.8 °F 3.9 °F 52% 30.52 in 10.0 mi North 11.5 mph - N/A   Scattered Clouds
6:53 PM 17.1 °F 5.0 °F 3.9 °F 56% 30.55 in 10.0 mi North 10.4 mph - N/A   Mostly Cloudy
7:53 PM 16.0 °F 2.3 °F 3.0 °F 57% 30.57 in 10.0 mi North 12.7 mph - N/A   Clear
8:53 PM 15.1 °F 1.1 °F 3.0 °F 59% 30.58 in 10.0 mi NNE 12.7 mph - N/A   Clear
9:53 PM 14.0 °F -0.8 °F 1.9 °F 59% 30.60 in 10.0 mi NNE 13.8 mph - N/A   Clear
10:53 PM 12.9 °F -1.6 °F 1.9 °F 62% 30.62 in 10.0 mi NNE 12.7 mph - N/A   Clear
11:53 PM 12.0 °F -2.7 °F 1.9 °F 64% 30.63 in 10.0 mi North 12.7 mph - N/A   Clear